Skip Page Navigation
NASA JPL Caltech
NASA Logo - Jet Propulsion Laboratory + View the NASA Portal
+ Center for Near-Earth Object Studies
JPL Home Earth Solar System Stars & Galaxies Technology
JPL Solar System Dynamics
BODIES ORBITS EPHEMERIDES TOOLS PHYSICAL DATA DISCOVERY FAQ SITE MAP
IMPORTANT: The SSD Announcement email list is now available. Major changes are coming in the near future, including possible hostname and/or URL changes. To be notified of such changes, subscribe to this email list.

Please visit this page for more details.


JPL Small-Body Database Browser
Search: [ help ]  
441847 (2009 VG114)
Classification: Main-belt Asteroid          SPK-ID: 2441847
Ephemeris | Orbit Diagram | Orbital Elements | Mission Design | Physical Parameters | Discovery Circumstances ]

[ show orbit diagram ]
Orbital Elements at Epoch 2459000.5 (2020-May-31.0) TDB
Reference: JPL 15 (heliocentric ecliptic J2000)
 Element Value Uncertainty (1-sigma)   Units 
e .2088030603274128 6.3417e-08  
a 2.28064413990441 2.0254e-08 au
q 1.804438663974589 1.4633e-07 au
i 6.819599575051016 9.2027e-06 deg
node 264.4608135488539 4.7465e-05 deg
peri 41.33940024128 6.3289e-05 deg
M 128.5740191981137 3.4167e-05 deg
tp 2458551.201018224695
(2019-Mar-08.70101822)
0.00011728 TDB
period 1258.011800890198
3.44
1.6759e-05
4.588e-08
d
yr
n .2861658370336874 3.8122e-09 deg/d
Q 2.756849615834231 2.4484e-08 au
  Orbit Determination Parameters
   # obs. used (total)      112  
   data-arc span      5209 days (14.26 yr)  
   first obs. used      2005-08-29  
   last obs. used      2019-12-03  
   planetary ephem.      DE431  
   SB-pert. ephem.      SB431-N16  
   condition code      0  
   norm. resid. RMS      .6073  
   source      ORB  
   producer      Otto Matic  
   solution date      2019-Dec-14 22:52:33  

Additional Information
 Earth MOID = .795774 au 
 Jupiter MOID = 2.4939 au 
 T_jup = 3.567 
[ show covariance matrix ]

Ephemeris | Orbit Diagram | Orbital Elements | Mission Design | Physical Parameters | Discovery Circumstances ]

Physical Parameter Table
Parameter Symbol Value Units Sigma Reference Notes
absolute magnitude H 17.6   n/a MPO450445  

441847 (2009 VG114)          Discovered 2009-Nov-09 by Spacewatch at Kitt Peak
Reference: Last Updated: 2015-09-02
Ephemeris | Orbit Diagram | Orbital Elements | Mission Design | Physical Parameters | Discovery Circumstances ]
ABOUT SSD CREDITS/AWARDS PRIVACY/COPYRIGHT GLOSSARY LINKS
FirstGov 2020-May-29 13:30 UT
(server date/time)  
NASA Home Page
Site Manager:   Ryan S. Park
Webmaster  Alan B. Chamberlin